Roza A — TCRB7 — position and weather

sailwx.info

Track history (hours):
 
Tides and Currents Weather Stations Pressure Air Temp Water Temp Dewpoint Dewpoint Depression Visibility Wind Speed Wind Dir Waves Ship Positions

Roza A

Last reported at 2014-Jul-31 21:28 UTC. Time now 2014-Jul-31 21:41 UTC.
Position N 37°57' E 023°36'.

Length 169 m; draft 9 m.

Type: Ship (hazmat cat A). MMSI: 271001057.

Date/timePositionNaut miles runAvg speedWind from/ knotsBaromVisibWave heightAir tempDewpointWater temp
2014-Jul-31 21:28N 37°57' E 023°36'0 0.0
2014-Jul-31 20:28N 37°57' E 023°36'0 0.0
2014-Jul-31 19:28N 37°57' E 023°36'3 2.9
2014-Jul-31 18:33N 37°55' E 023°36'8 7.9
2014-Jul-31 17:33N 37°48' E 023°41'1010.4
2014-Jul-31 16:33N 37°38' E 023°47'1110.5
2014-Jul-31 15:28N 37°28' E 023°43'1611.4
2014-Jul-31 14:05N 37°14' E 023°33'612.1
2014-Jul-31 13:33N 37°08' E 023°30'1514.9
2014-Jul-31 12:33N 36°54' E 023°22'1514.6
2014-Jul-31 11:33N 36°40' E 023°19'1414.0
2014-Jul-31 10:33N 36°26' E 023°14'3710.8
2014-Jul-31 07:10N 36°18' E 022°30'360 9.8
2014-Jul-29 18:33N 38°32' E 015°29'12 9.8
2014-Jul-29 17:17N 38°39' E 015°16'11 9.8
2014-Jul-29 16:07N 38°46' E 015°04'18 9.9
2014-Jul-29 14:20N 38°55' E 014°44'5010.2
2014-Jul-29 09:21N 39°21' E 013°49'810.5
2014-Jul-29 08:33N 39°26' E 013°40'1110.6
2014-Jul-29 07:33N 39°32' E 013°29'19610.7
2014-Jul-28 13:12N 41°11' E 009°47'9911.1
2014-Jul-28 04:15N 41°44' E 007°42'2 2.6
2014-Jul-28 03:33N 41°45' E 007°40'1110.8
2014-Jul-28 02:33N 41°51' E 007°29'1310.8
2014-Jul-28 01:23N 41°59' E 007°15'910.8
2014-Jul-28 00:33N 42°04' E 007°05'1110.6
2014-Jul-27 23:33N 42°10' E 006°53'1110.6
2014-Jul-27 22:33N 42°16' E 006°42'1110.9
2014-Jul-27 21:33N 42°22' E 006°29'1010.5
2014-Jul-27 20:33N 42°29' E 006°18'1010.3
2014-Jul-27 19:33N 42°35' E 006°07'1010.3
2014-Jul-27 18:33N 42°40' E 005°55'1010.0
2014-Jul-27 17:33N 42°46' E 005°44'1110.0
2014-Jul-27 16:27N 42°53' E 005°32'910.2
2014-Jul-27 15:32N 42°58' E 005°22'1010.3
2014-Jul-27 14:33N 43°04' E 005°10'10 9.9
2014-Jul-27 13:33N 43°11' E 005°01'1110.8
2014-Jul-27 12:33N 43°22' E 004°57'6 5.4
2014-Jul-27 11:31N 43°25' E 004°51'0 0.0
2014-Jul-27 10:31N 43°25' E 004°51'0 0.0
2014-Jul-27 09:31N 43°25' E 004°51'0 0.0
2014-Jul-27 08:31N 43°25' E 004°51'0 0.0
2014-Jul-27 07:31N 43°25' E 004°51'0 0.0
2014-Jul-27 06:28N 43°25' E 004°51'0 0.0
2014-Jul-27 05:31N 43°25' E 004°51'0 0.0
2014-Jul-27 04:31N 43°25' E 004°51'0 0.0
2014-Jul-27 03:31N 43°25' E 004°51'0 0.0
2014-Jul-27 02:31N 43°25' E 004°51'0 0.0
2014-Jul-27 01:31N 43°25' E 004°51'0 0.0
2014-Jul-27 00:31N 43°25' E 004°51'0 0.0
2014-Jul-26 23:31N 43°25' E 004°51'0 0.0
2014-Jul-26 22:31N 43°25' E 004°51'0 0.0
2014-Jul-26 21:31N 43°25' E 004°51'0 0.0
2014-Jul-26 20:31N 43°25' E 004°51'0 0.0
2014-Jul-26 19:31N 43°25' E 004°51'0 0.0
2014-Jul-26 18:31N 43°25' E 004°51'0 0.0
2014-Jul-26 17:31N 43°25' E 004°51'0 0.0
2014-Jul-26 16:31N 43°25' E 004°51'0 0.0
2014-Jul-26 15:31N 43°25' E 004°51'0 0.0
2014-Jul-26 14:31N 43°25' E 004°51'0 0.0
2014-Jul-26 13:31N 43°25' E 004°51'0 0.0
2014-Jul-26 12:31N 43°25' E 004°51'0 0.0
2014-Jul-26 11:31N 43°25' E 004°51'0 0.0
2014-Jul-26 10:31N 43°25' E 004°51'0 0.0
2014-Jul-26 09:31N 43°25' E 004°51'0 0.0
2014-Jul-26 08:31N 43°25' E 004°51'0 0.0
2014-Jul-26 07:31N 43°25' E 004°51'0 0.0
2014-Jul-26 06:31N 43°25' E 004°51'0 0.0
2014-Jul-26 05:31N 43°25' E 004°51'0 0.0
2014-Jul-26 04:31N 43°25' E 004°51'0 0.0
2014-Jul-26 03:31N 43°25' E 004°51'1 1.1
2014-Jul-26 02:33N 43°24' E 004°52'8 7.7
2014-Jul-26 01:33N 43°19' E 004°59'8 8.1
2014-Jul-26 00:33N 43°11' E 005°03'4 3.9
2014-Jul-25 23:31N 43°07' E 005°03'1 0.7
2014-Jul-25 22:30N 43°08' E 005°03'1 0.8
2014-Jul-25 21:33N 43°08' E 005°03'1 1.2
2014-Jul-25 20:34N 43°09' E 005°01'1613.8
2014-Jul-25 19:24N 42°58' E 004°46'4314.5
2014-Jul-25 16:25N 42°25' E 004°08'1714.2
2014-Jul-25 15:12N 42°11' E 003°53'1514.0
2014-Jul-25 14:06N 41°60' E 003°39'912.7
2014-Jul-25 13:21N 41°52' E 003°31'1413.9
2014-Jul-25 12:21N 41°45' E 003°16'2714.6
2014-Jul-25 10:29N 41°31' E 002°44'1414.9
2014-Jul-25 09:31N 41°24' E 002°28'1313.6
2014-Jul-25 08:32N 41°17' E 002°12'5 4.7
2014-Jul-25 07:29N 41°21' E 002°10'0 0.0
2014-Jul-25 06:17N 41°22' E 002°10'0 0.0
2014-Jul-25 04:32N 41°21' E 002°10'0 0.0
2014-Jul-25 03:29N 41°21' E 002°10'0 0.0
2014-Jul-25 02:23N 41°21' E 002°10'0 0.0
2014-Jul-25 01:29N 41°21' E 002°10'0 0.0
2014-Jul-25 00:11N 41°21' E 002°10'0 0.0
2014-Jul-24 20:05N 41°21' E 002°10'0 0.0
2014-Jul-24 19:32N 41°21' E 002°10'0 0.0
2014-Jul-24 17:17N 41°21' E 002°10'0 0.0
2014-Jul-24 16:29N 41°21' E 002°10'0 0.0
2014-Jul-24 14:17N 41°21' E 002°10'0 0.0
2014-Jul-24 12:33N 41°21' E 002°10'6 6.2
2014-Jul-24 11:33N 41°15' E 002°11'4 3.8
2014-Jul-24 10:33N 41°12' E 002°09'8 5.8
2014-Jul-24 09:10N 41°06' E 002°01'914.6
2014-Jul-24 08:32N 40°59' E 001°53'1414.4
2014-Jul-24 07:32N 40°48' E 001°41'1414.0
2014-Jul-24 06:33N 40°38' E 001°29'1110.7
2014-Jul-24 05:33N 40°32' E 001°17'1010.3
2014-Jul-24 04:33N 40°27' E 001°06'1110.6
2014-Jul-24 03:33N 40°21' E 000°54'1110.6
2014-Jul-24 02:33N 40°15' E 000°42'1210.5
2014-Jul-24 01:24N 40°08' E 000°29'1110.3
2014-Jul-24 00:19N 40°02' E 000°17'13 1.9
2014-Jul-23 17:33N 39°58' E 000°02'0 0.0
2014-Jul-23 10:18N 39°58' E 000°02'1 0.2
2014-Jul-23 05:25N 39°57' E 000°02'5 5.2
2014-Jul-23 04:25N 39°58' E 000°09'0 0.4
2014-Jul-23 03:31N 39°58' E 000°09'0 0.3
2014-Jul-23 02:33N 39°58' E 000°09'0 0.3
2014-Jul-23 01:33N 39°58' E 000°09'1 1.2
2014-Jul-23 00:32N 39°56' E 000°09'9 9.3
2014-Jul-22 23:33N 39°48' E 000°06'1010.4
2014-Jul-22 22:33N 39°39' W 000°01'1010.4
2014-Jul-22 21:33N 39°31' W 000°10'8 8.2
2014-Jul-22 20:33N 39°27' W 000°19'0 0.2
2014-Jul-22 19:31N 39°27' W 000°19'0 0.0
2014-Jul-22 18:31N 39°27' W 000°19'0 0.0
2014-Jul-22 17:31N 39°27' W 000°19'0 0.0
2014-Jul-22 16:31N 39°27' W 000°19'0 0.0
2014-Jul-22 15:31N 39°27' W 000°19'0 0.0
2014-Jul-22 14:31N 39°27' W 000°19'0 0.0
2014-Jul-22 13:31N 39°27' W 000°19'0 0.0
2014-Jul-22 12:31N 39°27' W 000°19'0 0.0
2014-Jul-22 11:31N 39°27' W 000°19'0 0.0
2014-Jul-22 10:31N 39°27' W 000°19'2 1.9
2014-Jul-22 09:33N 39°25' W 000°17'5811.2
2014-Jul-22 04:20N 39°16' E 000°57'911.4
2014-Jul-22 03:33N 39°14' E 001°08'1111.1
2014-Jul-22 02:31N 39°13' E 001°23'1010.8
2014-Jul-22 01:33N 39°12' E 001°36'1110.6
2014-Jul-22 00:33N 39°11' E 001°50'1010.4
2014-Jul-21 23:33N 39°10' E 002°03'1212.3
2014-Jul-21 22:33N 39°08' E 002°19'1514.6
2014-Jul-21 21:33N 39°06' E 002°38'  
Track history (hours):
 
Tides and Currents Weather Stations Pressure Air Temp Water Temp Dewpoint Dewpoint Depression Visibility Wind Speed Wind Dir Waves Ship Positions

Roza A

Last reported at 2014-Jul-31 21:28 UTC. Time now 2014-Jul-31 21:41 UTC.
Position N 37°57' E 023°36'.

Length 169 m; draft 9 m.

Type: Ship (hazmat cat A). MMSI: 271001057.

Date/timePositionNaut miles runAvg speedWind from/ knotsBaromVisibWave heightAir tempDewpointWater temp
2014-Jul-31 21:28N 37°57' E 023°36'0 0.0
2014-Jul-31 20:28N 37°57' E 023°36'0 0.0
2014-Jul-31 19:28N 37°57' E 023°36'3 2.9
2014-Jul-31 18:33N 37°55' E 023°36'8 7.9
2014-Jul-31 17:33N 37°48' E 023°41'1010.4
2014-Jul-31 16:33N 37°38' E 023°47'1110.5
2014-Jul-31 15:28N 37°28' E 023°43'1611.4
2014-Jul-31 14:05N 37°14' E 023°33'612.1
2014-Jul-31 13:33N 37°08' E 023°30'1514.9
2014-Jul-31 12:33N 36°54' E 023°22'1514.6
2014-Jul-31 11:33N 36°40' E 023°19'1414.0
2014-Jul-31 10:33N 36°26' E 023°14'3710.8
2014-Jul-31 07:10N 36°18' E 022°30'360 9.8
2014-Jul-29 18:33N 38°32' E 015°29'12 9.8
2014-Jul-29 17:17N 38°39' E 015°16'11 9.8
2014-Jul-29 16:07N 38°46' E 015°04'18 9.9
2014-Jul-29 14:20N 38°55' E 014°44'5010.2
2014-Jul-29 09:21N 39°21' E 013°49'810.5
2014-Jul-29 08:33N 39°26' E 013°40'1110.6
2014-Jul-29 07:33N 39°32' E 013°29'19610.7
2014-Jul-28 13:12N 41°11' E 009°47'9911.1
2014-Jul-28 04:15N 41°44' E 007°42'2 2.6
2014-Jul-28 03:33N 41°45' E 007°40'1110.8
2014-Jul-28 02:33N 41°51' E 007°29'1310.8
2014-Jul-28 01:23N 41°59' E 007°15'910.8
2014-Jul-28 00:33N 42°04' E 007°05'1110.6
2014-Jul-27 23:33N 42°10' E 006°53'1110.6
2014-Jul-27 22:33N 42°16' E 006°42'1110.9
2014-Jul-27 21:33N 42°22' E 006°29'1010.5
2014-Jul-27 20:33N 42°29' E 006°18'1010.3
2014-Jul-27 19:33N 42°35' E 006°07'1010.3
2014-Jul-27 18:33N 42°40' E 005°55'1010.0
2014-Jul-27 17:33N 42°46' E 005°44'1110.0
2014-Jul-27 16:27N 42°53' E 005°32'910.2
2014-Jul-27 15:32N 42°58' E 005°22'1010.3
2014-Jul-27 14:33N 43°04' E 005°10'10 9.9
2014-Jul-27 13:33N 43°11' E 005°01'1110.8
2014-Jul-27 12:33N 43°22' E 004°57'6 5.4
2014-Jul-27 11:31N 43°25' E 004°51'0 0.0
2014-Jul-27 10:31N 43°25' E 004°51'0 0.0
2014-Jul-27 09:31N 43°25' E 004°51'0 0.0
2014-Jul-27 08:31N 43°25' E 004°51'0 0.0
2014-Jul-27 07:31N 43°25' E 004°51'0 0.0
2014-Jul-27 06:28N 43°25' E 004°51'0 0.0
2014-Jul-27 05:31N 43°25' E 004°51'0 0.0
2014-Jul-27 04:31N 43°25' E 004°51'0 0.0
2014-Jul-27 03:31N 43°25' E 004°51'0 0.0
2014-Jul-27 02:31N 43°25' E 004°51'0 0.0
2014-Jul-27 01:31N 43°25' E 004°51'0 0.0
2014-Jul-27 00:31N 43°25' E 004°51'0 0.0
2014-Jul-26 23:31N 43°25' E 004°51'0 0.0
2014-Jul-26 22:31N 43°25' E 004°51'0 0.0
2014-Jul-26 21:31N 43°25' E 004°51'0 0.0
2014-Jul-26 20:31N 43°25' E 004°51'0 0.0
2014-Jul-26 19:31N 43°25' E 004°51'0 0.0
2014-Jul-26 18:31N 43°25' E 004°51'0 0.0
2014-Jul-26 17:31N 43°25' E 004°51'0 0.0
2014-Jul-26 16:31N 43°25' E 004°51'0 0.0
2014-Jul-26 15:31N 43°25' E 004°51'0 0.0
2014-Jul-26 14:31N 43°25' E 004°51'0 0.0
2014-Jul-26 13:31N 43°25' E 004°51'0 0.0
2014-Jul-26 12:31N 43°25' E 004°51'0 0.0
2014-Jul-26 11:31N 43°25' E 004°51'0 0.0
2014-Jul-26 10:31N 43°25' E 004°51'0 0.0
2014-Jul-26 09:31N 43°25' E 004°51'0 0.0
2014-Jul-26 08:31N 43°25' E 004°51'0 0.0
2014-Jul-26 07:31N 43°25' E 004°51'0 0.0
2014-Jul-26 06:31N 43°25' E 004°51'0 0.0
2014-Jul-26 05:31N 43°25' E 004°51'0 0.0
2014-Jul-26 04:31N 43°25' E 004°51'0 0.0
2014-Jul-26 03:31N 43°25' E 004°51'1 1.1
2014-Jul-26 02:33N 43°24' E 004°52'8 7.7
2014-Jul-26 01:33N 43°19' E 004°59'8 8.1
2014-Jul-26 00:33N 43°11' E 005°03'4 3.9
2014-Jul-25 23:31N 43°07' E 005°03'1 0.7
2014-Jul-25 22:30N 43°08' E 005°03'1 0.8
2014-Jul-25 21:33N 43°08' E 005°03'1 1.2
2014-Jul-25 20:34N 43°09' E 005°01'1613.8
2014-Jul-25 19:24N 42°58' E 004°46'4314.5
2014-Jul-25 16:25N 42°25' E 004°08'1714.2
2014-Jul-25 15:12N 42°11' E 003°53'1514.0
2014-Jul-25 14:06N 41°60' E 003°39'912.7
2014-Jul-25 13:21N 41°52' E 003°31'1413.9
2014-Jul-25 12:21N 41°45' E 003°16'2714.6
2014-Jul-25 10:29N 41°31' E 002°44'1414.9
2014-Jul-25 09:31N 41°24' E 002°28'1313.6
2014-Jul-25 08:32N 41°17' E 002°12'5 4.7
2014-Jul-25 07:29N 41°21' E 002°10'0 0.0
2014-Jul-25 06:17N 41°22' E 002°10'0 0.0
2014-Jul-25 04:32N 41°21' E 002°10'0 0.0
2014-Jul-25 03:29N 41°21' E 002°10'0 0.0
2014-Jul-25 02:23N 41°21' E 002°10'0 0.0
2014-Jul-25 01:29N 41°21' E 002°10'0 0.0
2014-Jul-25 00:11N 41°21' E 002°10'0 0.0
2014-Jul-24 20:05N 41°21' E 002°10'0 0.0
2014-Jul-24 19:32N 41°21' E 002°10'0 0.0
2014-Jul-24 17:17N 41°21' E 002°10'0 0.0
2014-Jul-24 16:29N 41°21' E 002°10'0 0.0
2014-Jul-24 14:17N 41°21' E 002°10'0 0.0
2014-Jul-24 12:33N 41°21' E 002°10'6 6.2
2014-Jul-24 11:33N 41°15' E 002°11'4 3.8
2014-Jul-24 10:33N 41°12' E 002°09'8 5.8
2014-Jul-24 09:10N 41°06' E 002°01'914.6
2014-Jul-24 08:32N 40°59' E 001°53'1414.4
2014-Jul-24 07:32N 40°48' E 001°41'1414.0
2014-Jul-24 06:33N 40°38' E 001°29'1110.7
2014-Jul-24 05:33N 40°32' E 001°17'1010.3
2014-Jul-24 04:33N 40°27' E 001°06'1110.6
2014-Jul-24 03:33N 40°21' E 000°54'1110.6
2014-Jul-24 02:33N 40°15' E 000°42'1210.5
2014-Jul-24 01:24N 40°08' E 000°29'1110.3
2014-Jul-24 00:19N 40°02' E 000°17'13 1.9
2014-Jul-23 17:33N 39°58' E 000°02'0 0.0
2014-Jul-23 10:18N 39°58' E 000°02'1 0.2
2014-Jul-23 05:25N 39°57' E 000°02'5 5.2
2014-Jul-23 04:25N 39°58' E 000°09'0 0.4
2014-Jul-23 03:31N 39°58' E 000°09'0 0.3
2014-Jul-23 02:33N 39°58' E 000°09'0 0.3
2014-Jul-23 01:33N 39°58' E 000°09'1 1.2
2014-Jul-23 00:32N 39°56' E 000°09'9 9.3
2014-Jul-22 23:33N 39°48' E 000°06'1010.4
2014-Jul-22 22:33N 39°39' W 000°01'1010.4
2014-Jul-22 21:33N 39°31' W 000°10'8 8.2
2014-Jul-22 20:33N 39°27' W 000°19'0 0.2
2014-Jul-22 19:31N 39°27' W 000°19'0 0.0
2014-Jul-22 18:31N 39°27' W 000°19'0 0.0
2014-Jul-22 17:31N 39°27' W 000°19'0 0.0
2014-Jul-22 16:31N 39°27' W 000°19'0 0.0
2014-Jul-22 15:31N 39°27' W 000°19'0 0.0
2014-Jul-22 14:31N 39°27' W 000°19'0 0.0
2014-Jul-22 13:31N 39°27' W 000°19'0 0.0
2014-Jul-22 12:31N 39°27' W 000°19'0 0.0
2014-Jul-22 11:31N 39°27' W 000°19'0 0.0
2014-Jul-22 10:31N 39°27' W 000°19'2 1.9
2014-Jul-22 09:33N 39°25' W 000°17'5811.2
2014-Jul-22 04:20N 39°16' E 000°57'911.4
2014-Jul-22 03:33N 39°14' E 001°08'1111.1
2014-Jul-22 02:31N 39°13' E 001°23'1010.8
2014-Jul-22 01:33N 39°12' E 001°36'1110.6
2014-Jul-22 00:33N 39°11' E 001°50'1010.4
2014-Jul-21 23:33N 39°10' E 002°03'1212.3
2014-Jul-21 22:33N 39°08' E 002°19'1514.6
2014-Jul-21 21:33N 39°06' E 002°38'  

Dump ship's entire track history